Weather History for KFFX - October, 2013

Change the Weather History Date:

Thursday, October 3, 2013

  Actual Average (KMKG) Record (KMKG)
Temperature  
Mean Temperature 62 °F 55 °F  
Max Temperature 75 °F 64 °F 81 °F (2005)
Min Temperature 48 °F 46 °F 25 °F (1974)
Degree Days  
Heating Degree Days 4 10  
Month to date heating degree days 30  
Since 1 July heating degree days 203  
Cooling Degree Days 0 0  
Month to date cooling degree days 2  
Year to date cooling degree days 563  
Growing Degree Days 12 (Base 50)    
Moisture  
Dew Point 57 °F    
Average Humidity 82    
Maximum Humidity 100    
Minimum Humidity 63    
Precipitation  
Precipitation 0.00 in 0.11 in 3.21 in (1954)
Month to date precipitation 0.32  
Year to date precipitation 24.79  
Snow  
Snow 0.00 in 0.00 in - ()
Month to date snowfall 0.0  
Since 1 July snowfall 0.0  
Since 1 September snowfall 0.0  
Snow Depth -    
Sea Level Pressure  
Sea Level Pressure 29.96 in    
Wind  
Wind Speed 5 mph (SE)    
Max Wind Speed 16 mph    
Max Gust Speed 22 mph    
Visibility 9 miles    
Events Rain    
T = Trace of Precipitation, MM = Missing Value Source: NWS Daily Summary

Daily Weather History Graph

Daily Weather History Graph

Search for Another Location

Airport or City:

Trip Planner

Search our weather history database for the weather conditions in past years. The results will help you decide how hot, cold, wet, or windy it might be!

Date:

Astronomy

Oct. 03, 2013 Rise Set
Actual Time 7:44 AM EDT 7:21 PM EDT
Civil Twilight 7:15 AM EDT 7:49 PM EDT
Nautical Twilight 6:42 AM EDT 8:22 PM EDT
Astronomical Twilight 6:08 AM EDT 8:55 PM EDT
Moon 6:15 AM EDT (10/3) 6:29 PM EDT (10/3)
Length of Visible Light 12h 33m
Length of Day
11h 36m
Waning Crescent, 2% of the Moon is Illuminated
Oct 3
Waning Crescent
Oct 4
New
Oct 11
First Quarter
Oct 18
Full
Oct 26
Last Quarter

Hourly Weather History & Observations

Time (EDT) Temp. Dew Point Humidity Pressure Visibility Wind Dir Wind Speed Gust Speed Precip Events Conditions
12:00 AM 50.0 °F 46.4 °F 87% 30.05 in 10.0 mi Calm Calm - N/A   Clear
12:20 AM 48.2 °F 46.4 °F 93% 30.05 in 10.0 mi Calm Calm - N/A   Clear
12:40 AM 50.0 °F 48.2 °F 94% 30.04 in 10.0 mi East 4.6 mph - N/A   Clear
1:00 AM 51.8 °F 48.2 °F 88% 30.03 in 10.0 mi East 4.6 mph - N/A   Clear
1:40 AM 53.6 °F 46.4 °F 77% 30.03 in 10.0 mi East 4.6 mph - N/A   Clear
2:01 AM 53.6 °F 46.4 °F 77% 30.03 in 10.0 mi East 4.6 mph - N/A   Clear
2:21 AM 53.6 °F 44.6 °F 72% 30.01 in 10.0 mi East 5.8 mph - N/A   Clear
2:41 AM 53.6 °F 44.6 °F 72% 30.01 in 10.0 mi East 5.8 mph - N/A   Clear
3:01 AM 53.6 °F 44.6 °F 72% 30.01 in 10.0 mi East 3.5 mph - N/A   Clear
3:21 AM 53.6 °F 44.6 °F 72% 30.01 in 10.0 mi East 4.6 mph - N/A   Scattered Clouds
3:41 AM 51.8 °F 46.4 °F 82% 30.00 in 10.0 mi East 6.9 mph - N/A   Mostly Cloudy
4:07 AM 51.8 °F 44.6 °F 76% 30.00 in 10.0 mi East 4.6 mph - N/A   Scattered Clouds
4:22 AM 53.6 °F 42.8 °F 67% 30.00 in 10.0 mi East 4.6 mph - N/A   Mostly Cloudy
4:41 AM 53.6 °F 44.6 °F 72% 30.00 in 10.0 mi East 5.8 mph - N/A   Overcast
5:02 AM 53.6 °F 44.6 °F 72% 30.00 in 10.0 mi East 5.8 mph - N/A   Overcast
5:26 AM 55.4 °F 44.6 °F 67% 30.00 in 10.0 mi East 5.8 mph - N/A   Mostly Cloudy
5:41 AM 53.6 °F 44.6 °F 72% 30.00 in 10.0 mi East 5.8 mph - N/A   Mostly Cloudy
6:01 AM 55.4 °F 42.8 °F 63% 30.00 in 10.0 mi East 5.8 mph - N/A   Overcast
6:21 AM 55.4 °F 42.8 °F 63% 29.99 in 10.0 mi East 8.1 mph - N/A   Scattered Clouds
6:46 AM 55.4 °F 44.6 °F 67% 29.99 in 10.0 mi ESE 5.8 mph - N/A   Mostly Cloudy
7:00 AM 53.6 °F 44.6 °F 72% 29.99 in 10.0 mi East 4.6 mph - N/A   Scattered Clouds
7:27 AM 53.6 °F 44.6 °F 72% 29.98 in 10.0 mi East 6.9 mph - N/A   Clear
7:41 AM 53.6 °F 44.6 °F 72% 29.98 in 10.0 mi East 5.8 mph - N/A   Clear
8:05 AM 53.6 °F 46.4 °F 77% 29.98 in 10.0 mi East 4.6 mph - N/A   Clear
8:20 AM 53.6 °F 46.4 °F 77% 29.98 in 10.0 mi East 4.6 mph - N/A   Scattered Clouds
8:47 AM 55.4 °F 46.4 °F 72% 29.99 in 10.0 mi East 3.5 mph - N/A   Mostly Cloudy
9:01 AM 55.4 °F 48.2 °F 77% 29.99 in 10.0 mi Calm Calm - N/A   Overcast
9:21 AM 57.2 °F 50.0 °F 77% 29.99 in 10.0 mi East 3.5 mph - N/A   Overcast
9:42 AM 57.2 °F 50.0 °F 77% 29.99 in 10.0 mi ESE 4.6 mph - N/A   Overcast
10:00 AM 59.0 °F 51.8 °F 77% 29.98 in 10.0 mi ESE 5.8 mph - N/A   Overcast
10:21 AM 60.8 °F 53.6 °F 77% 29.98 in 10.0 mi ESE 4.6 mph - N/A   Overcast
10:45 AM 64.4 °F 55.4 °F 73% 29.97 in 10.0 mi SE 4.6 mph - N/A   Overcast
11:01 AM 66.2 °F 59.0 °F 78% 29.96 in 10.0 mi SSE 4.6 mph - N/A   Mostly Cloudy
11:21 AM 69.8 °F 60.8 °F 73% 29.95 in 10.0 mi SSE 8.1 mph - N/A   Scattered Clouds
11:40 AM 71.6 °F 62.6 °F 73% 29.95 in 10.0 mi South 8.1 mph - N/A   Scattered Clouds
12:02 PM 73.4 °F 64.4 °F 73% 29.95 in 7.0 mi South 8.1 mph - N/A   Scattered Clouds
12:20 PM 75.2 °F 64.4 °F 69% 29.95 in 5.0 mi SSW 9.2 mph 16.1 mph N/A   Haze
12:41 PM 75.2 °F 64.4 °F 69% 29.95 in 5.0 mi SSW 10.4 mph - N/A   Haze
12:59 PM 75.2 °F 64.4 °F 69% 29.95 in 5.0 mi SSW 10.4 mph 16.1 mph N/A   Haze
1:18 PM 75.2 °F 66.2 °F 73% 29.95 in 5.0 mi SW 15.0 mph 18.4 mph N/A   Haze
1:39 PM 75.2 °F 66.2 °F 73% 29.94 in 4.0 mi SW 15.0 mph 18.4 mph N/A   Haze
1:58 PM 71.6 °F 66.2 °F 83% 29.95 in 4.0 mi WSW 12.7 mph 19.6 mph N/A   Haze
2:19 PM 69.8 °F 66.2 °F 88% 29.94 in 4.0 mi SSW 16.1 mph 21.9 mph N/A Rain Light Rain
2:39 PM 69.8 °F 66.2 °F 88% 29.94 in 5.0 mi SW 11.5 mph 19.6 mph N/A   Overcast
2:58 PM 69.8 °F 66.2 °F 88% 29.93 in 5.0 mi SSW 11.5 mph - N/A   Haze
3:28 PM 71.6 °F 66.2 °F 83% 29.92 in 5.0 mi SSW 9.2 mph - N/A   Overcast
3:39 PM 71.6 °F 66.2 °F 83% 29.92 in 5.0 mi South 8.1 mph - N/A   Haze
3:58 PM 69.8 °F 68.0 °F 94% 29.92 in 5.0 mi SSW 13.8 mph 19.6 mph N/A   Overcast
4:27 PM 68.0 °F 68.0 °F 100% 29.91 in 1.0 mi SSW 6.9 mph - N/A Rain Light Rain
4:39 PM 68.0 °F 68.0 °F 100% 29.89 in 2.5 mi South 5.8 mph - N/A Rain Light Rain
4:58 PM 68.0 °F 68.0 °F 100% 29.90 in 4.0 mi SSW 8.1 mph - N/A   Overcast
5:28 PM 69.8 °F 68.0 °F 94% 29.90 in 7.0 mi SSW 9.2 mph - N/A   Overcast
5:38 PM 68.0 °F 68.0 °F 100% 29.90 in 7.0 mi SSW 8.1 mph - N/A   Overcast
5:59 PM 69.8 °F 66.2 °F 88% 29.91 in 10.0 mi SW 6.9 mph - N/A   Overcast
6:18 PM 69.8 °F 66.2 °F 88% 29.91 in 10.0 mi SW 8.1 mph - N/A   Overcast
6:40 PM 68.0 °F 64.4 °F 88% 29.92 in 10.0 mi SW 8.1 mph - N/A   Overcast
7:19 PM 68.0 °F 66.2 °F 94% 29.92 in 10.0 mi West 3.5 mph - N/A   Overcast
7:38 PM 68.0 °F 64.4 °F 88% 29.92 in 10.0 mi Calm Calm - N/A   Overcast
8:05 PM 66.2 °F 64.4 °F 94% 29.93 in 10.0 mi Calm Calm - N/A   Overcast
8:19 PM 66.2 °F 64.4 °F 94% 29.93 in 10.0 mi Calm Calm - N/A   Overcast
8:39 PM 66.2 °F 64.4 °F 94% 29.94 in 10.0 mi Calm Calm - N/A   Mostly Cloudy
8:58 PM 66.2 °F 64.4 °F 94% 29.93 in 10.0 mi Calm Calm - N/A   Overcast
9:39 PM 66.2 °F 64.4 °F 94% 29.93 in 10.0 mi Calm Calm - N/A   Overcast
10:08 PM 66.2 °F 64.4 °F 94% 29.92 in 10.0 mi ESE 3.5 mph - N/A   Overcast
10:18 PM 66.2 °F 64.4 °F 94% 29.92 in 10.0 mi East 3.5 mph - N/A   Mostly Cloudy
10:39 PM 66.2 °F 64.4 °F 94% 29.92 in 10.0 mi Calm Calm - N/A   Mostly Cloudy
10:59 PM 66.2 °F 64.4 °F 94% 29.92 in 10.0 mi Calm Calm - N/A   Overcast
11:24 PM 66.2 °F 66.2 °F 100% 29.92 in 10.0 mi East 3.5 mph - N/A   Overcast
11:42 PM 66.2 °F 64.4 °F 94% 29.92 in 7.0 mi ESE 4.6 mph - N/A Rain Light Rain